User: anonymous   Login
Location: Godiavel Galaoual
(15.2485°N, 12.6604°W)
Time: 11:13:38
(UTC+00:00)
Language:

Transit 4A - Orbit

View from above orbital plane
View from above orbital plane
View from above satellite
View from above satellite

Ground track
Ground track

The orbit data is extracted from the following two-line orbital elements,

1   116U 61015A   21164.14090247 -.00000030  00000-0  36005-4 0  9994
2   116  66.8112  46.4575 0069413 118.6507 242.1575 13.91791770 42508
Epoch (UTC): 13 June 2021 03:22:53
Eccentricity: 0.0069413
inclination: 66.8112°
perigee height: 871 km
apogee height: 973 km
right ascension of ascending node: 46.4575°
argument of perigee: 118.6507°
revolutions per day: 13.91791770
mean anomaly at epoch: 242.1575°
orbit number at epoch: 4250

The dashed part of the orbit path shows where the satellite is in the earth's shadow,  

DLR